Location: Newark
(30.1000°N, 109.4667°E)
Time: 22:24:22
(UTC+00:00)

Vanguard 2 Rocket - Pass Details

Date: 20 February 2020
Orbit: 554 x 3326 km, 32.9° (Epoch: 05 April)

Event Time Altitude Azimuth Distance (km) Brightness Sun altitude
Rises 16:10:21 0° 278° (W) 6,192 11.3 -68.1°
Reaches altitude 10° 16:15:08 10° 279° (W) 4,746 10.6 -68.6°
Enters shadow 16:15:23 11° 280° (W) 4,670 10.6 -68.7°
